This is the latest recevied weather packets stored in our database for station/object 4S6DRJ-13. If no packets are shown the sender has not sent any weather packets the latest 10 day(s).
| Time | Temp. | Humidity | Pressure | Rain* | Wind** | Luminosity | Snow |
|---|---|---|---|---|---|---|---|
| 1788408568 | 30.56° C | 74% | 1010.5 hPa | 0 mm | 1.79 m/s, 286° | 498 W/m² | - |
| 1788408507 | 30.56° C | 73% | 1010.5 hPa | 0 mm | 1.79 m/s, 271° | 526 W/m² | - |
| 1788408446 | 30.56° C | 73% | 1010.5 hPa | 0 mm | 4.92 m/s, 310° | 481 W/m² | - |
| 1788408385 | 30.56° C | 73% | 1010.5 hPa | 0 mm | 3.13 m/s, 294° | 1109 W/m² | - |
| 1788408325 | 30.56° C | 74% | 1010.7 hPa | 0 mm | 2.24 m/s, 250° | 1116 W/m² | - |
| 1788408264 | 30° C | 74% | 1010.4 hPa | 0 mm | 2.24 m/s, 240° | 1117 W/m² | - |
| 1788408202 | 30° C | 74% | 1010.7 hPa | 0 mm | 0.89 m/s, 215° | 1111 W/m² | - |
| 1788408141 | 30° C | 74% | 1010.7 hPa | 0 mm | 2.68 m/s, 238° | 1108 W/m² | - |
| 1788408080 | 30° C | 75% | 1010.6 hPa | 0 mm | 1.79 m/s, 283° | 1106 W/m² | - |
| 1788408020 | 30° C | 75% | 1010.5 hPa | 0 mm | 1.79 m/s, 284° | 1103 W/m² | - |
| 1788407959 | 30° C | 76% | 1010.6 hPa | 0 mm | 1.79 m/s, 266° | 1105 W/m² | - |
| 1788407897 | 29.44° C | 76% | 1010.7 hPa | 0 mm | 2.68 m/s, 196° | 1106 W/m² | - |
| 1788407836 | 29.44° C | 77% | 1010.6 hPa | 0 mm | 1.34 m/s, 185° | 1110 W/m² | - |
| 1788407775 | 29.44° C | 76% | 1010.8 hPa | 0 mm | 0.89 m/s, 219° | 1111 W/m² | - |
| 1788407654 | 29.44° C | 76% | 1010.8 hPa | 0 mm | 2.24 m/s, 302° | 726 W/m² | - |
| 1788407593 | 29.44° C | 76% | 1010.9 hPa | 0 mm | 0.89 m/s, 340° | 396 W/m² | - |
| 1788407531 | 29.44° C | 75% | 1010.8 hPa | 0 mm | 0.89 m/s, 255° | 439 W/m² | - |
| 1788407470 | 30° C | 75% | 1010.8 hPa | 0 mm | 0.89 m/s, 263° | 449 W/m² | - |
| 1788407409 | 30° C | 75% | 1010.6 hPa | 0 mm | 0.89 m/s, 238° | 418 W/m² | - |
| 1788407348 | 30° C | 75% | 1010.8 hPa | 0 mm | 1.79 m/s, 300° | 366 W/m² | - |
| 1788407287 | 30° C | 74% | 1010.7 hPa | 0 mm | 1.79 m/s, 46° | 382 W/m² | - |
| 1788407227 | 30° C | 75% | 1010.6 hPa | 0 mm | 1.34 m/s, 315° | 470 W/m² | - |
| 1788407165 | 30° C | 76% | 1010.7 hPa | 0 mm | 0.89 m/s, 285° | 518 W/m² | - |
| 1788407104 | 30° C | 75% | 1010.7 hPa | 0 mm | 2.24 m/s, 231° | 622 W/m² | - |
| 1788407043 | 29.44° C | 76% | 1010.7 hPa | 0 mm | 1.79 m/s, 201° | 739 W/m² | - |
* Rain latest hour (hover to see other rain measurements)
** Current wind speed in m/s (hover to see current wind gust speed)